| time (UTC) | temp C | wind direction | speed KPH | gust KPH | rain 1hr cm | rain 24hr cm | rain mn cm | humidity % | barometer mb |
| 20260506193215 | 7 | 360 | 0.0 | 0.0 | 0.00 | 0.00 | 0.43 | 92 | |
| 20260506190211 | 7 | 360 | 0.0 | 0.0 | 0.00 | 0.00 | 0.43 | 92 | |
| 20260506183209 | 8 | 360 | 0.0 | 0.0 | 0.00 | 0.00 | 0.43 | 92 | |
| 20260506180216 | 8 | 360 | 0.0 | 0.0 | 0.00 | 0.00 | 0.43 | 92 | |
| 20260506173210 | 8 | 360 | 0.0 | 0.0 | 0.00 | 0.00 | 0.43 | 92 | |
| 20260506170215 | 8 | 360 | 0.0 | 0.0 | 0.00 | 0.00 | 0.41 | 92 | |
| 20260506163210 | 8 | 360 | 0.0 | 0.0 | 0.00 | 0.00 | 0.38 | 92 | |
| 20260506160210 | 8 | 360 | 0.0 | 0.0 | 0.00 | 0.00 | 0.36 | 91 | |
| 20260506153210 | 9 | 360 | 0.0 | 0.0 | 0.00 | 0.00 | 0.30 | 92 | |
| 20260506150210 | 10 | 360 | 0.0 | 0.0 | 0.00 | 0.00 | 0.15 | 92 | |
| 20260506143210 | 10 | 360 | 0.0 | 0.0 | 0.00 | 0.00 | 0.15 | 92 | |
| 20260506140210 | 10 | 360 | 0.0 | 0.0 | 0.00 | 0.00 | 0.15 | 91 | |
| 20260506133211 | 12 | 360 | 0.0 | 0.0 | 0.00 | 0.00 | 0.15 | 78 | |
| 20260506130211 | 13 | 360 | 0.0 | 0.0 | 0.00 | 0.00 | 0.15 | 74 | |
| 20260506123210 | 14 | 85 | 1.6 | 0.0 | 0.00 | 0.00 | 0.15 | 68 | |
| 20260506120210 | 14 | 17 | 0.0 | 0.0 | 0.00 | 0.00 | 0.15 | 68 | |
| 20260506113217 | 14 | 94 | 0.0 | 0.0 | 0.00 | 0.00 | 0.15 | 65 | |
| 20260506110210 | 13 | 360 | 0.0 | 0.0 | 0.00 | 0.00 | 0.15 | 70 | |
| 20260506100213 | 13 | 360 | 0.0 | 0.0 | 0.00 | 0.00 | 0.15 | 76 | |
| 20260506093211 | 13 | 273 | 0.0 | 0.0 | 0.00 | 0.00 | 0.15 | 72 | |
| 20260506090211 | 13 | 172 | 0.0 | 0.0 | 0.00 | 0.00 | 0.15 | 76 | |
| 20260506083211 | 12 | 360 | 0.0 | 0.0 | 0.00 | 0.00 | 0.15 | 79 | |
| 20260506080212 | 12 | 360 | 0.0 | 0.0 | 0.00 | 0.00 | 0.15 | 82 | |
| 20260506073211 | 11 | 360 | 0.0 | 0.0 | 0.00 | 0.00 | 0.15 | 83 | |
| 20260506070212 | 10 | 360 | 0.0 | 0.0 | 0.00 | 0.00 | 0.15 | 89 | |
| 20260506060210 | 7 | 360 | 0.0 | 0.0 | 0.00 | 0.00 | 0.15 | 96 | |
| 20260506050211 | 7 | 360 | 0.0 | 0.0 | 0.00 | 0.00 | 0.15 | 95 | |
| 20260506043211 | 6 | 360 | 0.0 | 0.0 | 0.00 | 0.00 | 0.15 | 95 | |
| 20260506040211 | 6 | 360 | 0.0 | 0.0 | 0.00 | 0.00 | 0.15 | 93 | |
| 20260506033211 | 6 | 360 | 0.0 | 0.0 | 0.00 | 0.00 | 0.15 | 93 | |
| 20260506030212 | 6 | 360 | 0.0 | 0.0 | 0.00 | 0.00 | 0.15 | 93 | |
| 20260506023211 | 7 | 360 | 0.0 | 0.0 | 0.00 | 0.00 | 0.15 | 92 | |
| 20260506020212 | 7 | 360 | 0.0 | 0.0 | 0.00 | 0.00 | 0.15 | 91 | |
| 20260506013211 | 7 | 360 | 0.0 | 0.0 | 0.00 | 0.00 | 0.15 | 91 | |
| 20260506010213 | 8 | 360 | 0.0 | 0.0 | 0.00 | 0.00 | 0.15 | 92 | |
| 20260506003209 | 8 | 360 | 0.0 | 0.0 | 0.00 | 0.00 | 0.15 | 92 | |
| 20260506000211 | 8 | 360 | 0.0 | 0.0 | 0.00 | 0.00 | 0.15 | 93 | |
| 20260505233209 | 7 | 360 | 0.0 | 0.0 | 0.00 | 0.00 | 0.15 | 93 | |
| 20260505230209 | 8 | 360 | 0.0 | 0.0 | 0.00 | 0.00 | 0.15 | 92 | |
| 20260505223210 | 8 | 360 | 0.0 | 0.0 | 0.00 | 0.00 | 0.15 | 92 | |
| 20260505220209 | 9 | 360 | 0.0 | 0.0 | 0.00 | 0.00 | 0.00 | 92 | |
| 20260505213211 | 9 | 360 | 0.0 | 0.0 | 0.00 | 0.00 | 0.15 | 92 | |
| 20260505210215 | 10 | 360 | 0.0 | 0.0 | 0.00 | 0.00 | 0.15 | 92 | |
| 20260505203209 | 10 | 360 | 0.0 | 0.0 | 0.00 | 0.00 | 0.15 | 89 | |
| 20260505200210 | 10 | 360 | 0.0 | 0.0 | 0.00 | 0.00 | 0.15 | 88 |